Apalachicola Bay - St. George Island Weather Center

Moon Phase Calendar



Online Cameras

 


      

Current Conditions in Apalachicola
1/25/2022 5:54:54 AM

51°F
Feels Like 50
Rain
Humidity
93%
Pressure
29.97"
Wind
7.8 mph (SE)
Dew Point
49°F
UV Index
0/10 (Low)
Visibility
6 mi

Hourly Forecast

Date & Time Tue, Jan 25
5:00 AM
Tue, Jan 25
6:00 AM
Tue, Jan 25
7:00 AM
Tue, Jan 25
8:00 AM
Tue, Jan 25
9:00 AM
Tue, Jan 25
10:00 AM
Tue, Jan 25
11:00 AM
Tue, Jan 25
12:00 PM
Tue, Jan 25
1:00 PM
Tue, Jan 25
2:00 PM
Tue, Jan 25
3:00 PM
Tue, Jan 25
4:00 PM
Tue, Jan 25
5:00 PM
Tue, Jan 25
6:00 PM
Tue, Jan 25
7:00 PM
Tue, Jan 25
8:00 PM
Tue, Jan 25
9:00 PM
Tue, Jan 25
10:00 PM
Tue, Jan 25
11:00 PM
Wed, Jan 26
12:00 AM
Wed, Jan 26
1:00 AM
Wed, Jan 26
2:00 AM
Wed, Jan 26
3:00 AM
Wed, Jan 26
4:00 AM
Wed, Jan 26
5:00 AM
Wed, Jan 26
6:00 AM
Wed, Jan 26
7:00 AM
Wed, Jan 26
8:00 AM
Wed, Jan 26
9:00 AM
Wed, Jan 26
10:00 AM
Wed, Jan 26
11:00 AM
Wed, Jan 26
12:00 PM
Wed, Jan 26
1:00 PM
Wed, Jan 26
2:00 PM
Wed, Jan 26
3:00 PM
Wed, Jan 26
4:00 PM
Wed, Jan 26
5:00 PM
Wed, Jan 26
6:00 PM
Wed, Jan 26
7:00 PM
Wed, Jan 26
8:00 PM
Wed, Jan 26
9:00 PM
Wed, Jan 26
10:00 PM
Wed, Jan 26
11:00 PM
Thu, Jan 27
12:00 AM
Thu, Jan 27
1:00 AM
Thu, Jan 27
2:00 AM
Thu, Jan 27
3:00 AM
Thu, Jan 27
4:00 AM
Condition
Rain

Rain

Rain

Rain

Rain

Rain

Rain

Rain

Rain

Rain

Rain

Rain

Rain

Rain

Rain

Rain

Rain

Rain

Rain

Rain

Clouds

Clouds

Clouds

Clouds

Clouds

Clouds

Clouds

Clouds

Clouds

Clouds

Clouds

Clouds

Clouds

Clouds

Clouds

Clouds

Clouds

Clouds

Clouds

Clear

Clear

Clear

Clear

Clear

Clear

Clouds

Clouds

Clouds
Temperature 52°F51°F52°F53°F53°F54°F55°F53°F54°F55°F54°F54°F52°F52°F51°F51°F51°F51°F51°F52°F52°F51°F50°F50°F49°F50°F50°F50°F51°F53°F56°F58°F60°F61°F62°F62°F62°F59°F57°F55°F54°F53°F52°F51°F51°F51°F51°F51°F
Feels Like 51°F50°F51°F52°F53°F54°F54°F52°F53°F54°F54°F53°F51°F51°F50°F50°F50°F50°F50°F51°F51°F50°F49°F45°F46°F45°F45°F49°F50°F52°F54°F57°F59°F59°F60°F61°F60°F58°F55°F54°F52°F51°F50°F50°F50°F50°F49°F49°F
Cloudiness 100%100%100%100%100%100%100%100%100%100%100%100%100%100%100%100%100%100%100%100%100%100%97%97%85%87%89%98%94%94%78%73%72%100%91%83%78%67%58%10%8%6%6%7%8%35%67%78%
Visibility 6 mi6 mi6 mi6 mi6 mi6 mi6 mi6 mi6 mi6 mi6 mi6 mi6 mi6 mi6 mi3 mi2 mi3 mi3 mi6 mi6 mi6 mi6 mi6 mi6 mi6 mi6 mi6 mi6 mi6 mi6 mi6 mi6 mi6 mi6 mi6 mi6 mi6 mi6 mi6 mi6 mi6 mi6 mi6 mi6 mi6 mi6 mi6 mi
Precipitation 80%96%100%96%100%100%100%100%100%85%89%100%100%100%100%100%100%100%100%100%80%4%8%16%21%29%17%2%6%10%10%10%10%0%0%0%0%0%0%0%0%0%0%0%0%0%0%0%
Humidity 92%93%93%93%94%93%93%94%92%91%91%92%93%92%94%94%95%95%94%93%93%94%93%93%91%90%89%88%86%82%75%67%62%61%58%57%58%63%68%71%73%75%76%77%79%81%83%84%
Dew Point 49°F49°F50°F51°F52°F52°F53°F51°F51°F52°F52°F51°F50°F49°F49°F49°F49°F49°F49°F50°F50°F49°F48°F48°F47°F47°F47°F47°F47°F48°F48°F47°F47°F47°F47°F47°F47°F46°F46°F46°F45°F45°F45°F45°F45°F45°F46°F46°F
Pressure 29.97"29.97"29.97"29.97"29.97"30"30.03"30.03"29.97"29.94"29.94"29.97"29.97"30"30.03"30.06"30.06"30.06"30.09"30.06"30.06"30.06"30.06"30.06"30.06"30.09"30.12"30.12"30.15"30.15"30.18"30.18"30.15"30.12"30.12"30.12"30.12"30.12"30.15"30.18"30.18"30.18"30.18"30.18"30.18"30.18"30.18"30.18"
Wind Speed 5.9 mph7.8 mph9.9 mph9.8 mph13.1 mph13.2 mph12.2 mph12.9 mph14.4 mph15.1 mph13.1 mph14.8 mph16.5 mph14.5 mph14.1 mph12.5 mph10.3 mph11.7 mph11.7 mph9.9 mph10.1 mph11.4 mph10 mph12.6 mph9.5 mph11.9 mph13.5 mph13.7 mph13.2 mph12.1 mph12.8 mph13 mph12.2 mph11.2 mph10.8 mph10.7 mph10.5 mph10.8 mph10.2 mph10.6 mph10.7 mph9.8 mph9.3 mph9.4 mph9.4 mph9.7 mph9.8 mph9.7 mph
Wind
Direction
142°
SE
134°
SE
122°
ESE
106°
ESE
93°
E
90°
E
75°
ENE
57°
ENE
89°
E
83°
E
79°
E
72°
ENE
64°
ENE
49°
NE
61°
ENE
56°
NE
50°
NE
56°
NE
56°
NE
61°
ENE
53°
NE
43°
NE
36°
NE
41°
NE
32°
NNE
32°
NNE
35°
NE
32°
NNE
34°
NE
45°
NE
44°
NE
35°
NE
32°
NNE
34°
NE
35°
NE
38°
NE
36°
NE
30°
NNE
35°
NE
29°
NNE
32°
NNE
32°
NNE
32°
NNE
38°
NE
45°
NE
43°
NE
43°
NE
47°
NE

Daily Forecast

Date High Low Precip. Humidity
Today
Jan 25

Rain
56 °F
51 °F
100%
94%
Wednesday
Jan 26

Rain
62 °F
49 °F
100%
67%
Thursday
Jan 27

Clouds
62 °F
50 °F
0%
70%
Friday
Jan 28

Rain
64 °F
54 °F
42%
61%
Saturday
Jan 29

Rain
53 °F
38 °F
42%
28%
Sunday
Jan 30

Clear
52 °F
37 °F
0%
30%
Monday
Jan 31

Clouds
62 °F
49 °F
0%
52%
Tuesday
Feb 1

Clouds
61 °F
54 °F
0%
52%
Wednesday
Feb 2

Clouds
66 °F
58 °F
0%
68%
Thursday
Feb 3

Clouds
68 °F
62 °F
0%
76%
Friday
Feb 4

Clear
70 °F
63 °F
0%
74%
Saturday
Feb 5

Clear
70 °F
63 °F
0%
73%
Sunday
Feb 6

Rain
70 °F
62 °F
38%
81%
Monday
Feb 7

Clouds
69 °F
59 °F
0%
76%
Tuesday
Feb 8

Clouds
70 °F
64 °F
0%
83%
Wednesday
Feb 9

Clear
72 °F
64 °F
0%
78%

Temperature 8-14 Day Outlook



Precipitation 8-14 Day Outlook




Quick Links
Apalachicola Bay - St. George Island News
Apalachicola Bay - St. George Island Photos
Apalachicola Bay - St. George Island Videos




About Us
Contact Us
Site Map
Search Site
Advertise With Us
   
Apalachicola.USGulf.info
THE APALACHICOLA BAY - ST. GEORGE ISLAND WEBSITE

Copyright 2022, Coastal Town
Privacy    |    Legal